Regional Weather Roundup
Issued by NWS

Home | Current Version | Previous Version | Graphics & Text | Print | Product List | Glossary On
Versions: 1 2 3 4 5 6 7 8 9 10 11 12 13 14 15 16 17 18 19 20 21 22 23 24 25 26 27 28 29 30 31 32 33 34 35 36 37 38 39 40 41 42 43 44 45 46 47 48 49 50
000
ASUS45 KBOI 230010
RWRID

IDAHO REGIONAL WEATHER ROUNDUP
NATIONAL WEATHER SERVICE BOISE ID
500 PM MST MON JAN 22 2018

NOTE: "FAIR" INDICATES FEW OR NO CLOUDS BELOW 12000 FEET
WITH NO SIGNIFICANT WEATHER AND/OR OBSTRUCTIONS TO VISIBILITY

IDZ012-014-230100-
SOUTHWEST IDAHO


CITY           SKY/WX    TMP DP  RH WIND       PRES   REMARKS
BOISE          PTCLDY    42  32  67 NW9       30.27R
CALDWELL       PTCLDY    43  35  73 NW6       30.29R
MOUNTAIN HOME  PTCLDY    43  36  75 NW9       30.26R
$$

IDZ016-017-230100-
SOUTHCENTRAL IDAHO


CITY           SKY/WX    TMP DP  RH WIND       PRES   REMARKS
BURLEY         CLOUDY    37  29  72 W10       30.23R WCI  30
JEROME         PTCLDY    35  30  82 SW6       30.24R WCI  30
TWIN FALLS     MOCLDY    35  30  82 W8        30.24R WCI  29
$$

IDZ019>023-230100-
SOUTHEAST IDAHO


CITY           SKY/WX    TMP DP  RH WIND       PRES   REMARKS
IDAHO FALLS    LGT SNOW  29  26  89 SW13G18   30.21R WCI  19
POCATELLO      CLOUDY    34  26  72 S15       30.22R WCI  24
REXBURG        LGT SNOW  26  24  92 S3        30.21R FOG
$$

IDZ006-010-011-018-031-032-230100-
CENTRAL IDAHO MOUNTAINS


CITY           SKY/WX    TMP DP  RH WIND       PRES   REMARKS
MCCALL         MOCLDY    29  24  82 NW3       30.19R
HAILEY         PTCLDY    28  25  86 CALM      30.17S
STANLEY          N/A     28  19  69 N5        30.15R WCI  23
SALMON         MOCLDY    27  24  89 CALM      30.22R
CHALLIS        PTCLDY    28  25  88 CALM      30.16R
$$

IDZ002-004-006-007-026-230100-
NORTHERN IDAHO


CITY           SKY/WX    TMP DP  RH WIND       PRES   REMARKS
LEWISTON       MOCLDY    47  36  65 E5        30.23S
LOWELL           N/A     38  36  92 CALM      30.28R
COEUR D`ALENE  CLOUDY    36  32  85 SW10      30.18S WCI  28
MULLAN PASS    HVY SNOW  24  22  91 VRB3      30.05R VSB<1/4
$$



USA.gov is the U.S. government's official web portal to all federal, state and local government web resources and services.